Regional Weather Roundup
Issued by NWS

Home | Current Version | Previous Version | Graphics & Text | Print | Product List | Glossary On
Versions: 1 2 3 4 5 6 7 8 9 10 11 12 13 14 15 16 17 18 19 20 21 22 23 24 25 26 27 28 29 30 31 32 33 34 35 36 37 38 39 40 41 42 43 44 45 46 47 48 49 50
660
ASUS45 KBOI 300110
RWRID

IDAHO REGIONAL WEATHER ROUNDUP
NATIONAL WEATHER SERVICE BOISE ID
700 PM MDT FRI JUL 29 2016

NOTE: "FAIR" INDICATES FEW OR NO CLOUDS BELOW 12000 FEET
WITH NO SIGNIFICANT WEATHER AND/OR OBSTRUCTIONS TO VISIBILITY

IDZ012-014-300200-
SOUTHWEST IDAHO


CITY           SKY/WX    TMP DP  RH WIND       PRES   REMARKS
BOISE          SUNNY     99  35  10 NW12      29.82F HX  93
CALDWELL       SUNNY     98  51  20 N9        29.80F HX  95
MOUNTAIN HOME  SUNNY    101  38  11 N15       29.83F HX  95
$$

IDZ016-017-300200-
SOUTHCENTRAL IDAHO


CITY           SKY/WX    TMP DP  RH WIND       PRES   REMARKS
BURLEY         SUNNY     89  43  20 W12       29.92F
JEROME         SUNNY     93  50  23 W7        29.92F HX  90
TWIN FALLS     SUNNY     94  35  12 VRB5      29.94F
$$

IDZ019>023-300200-
SOUTHEAST IDAHO


CITY           SKY/WX    TMP DP  RH WIND       PRES   REMARKS
IDAHO FALLS    SUNNY     91  34  13 SE10      29.97F
POCATELLO      SUNNY     94  38  14 SW16      29.94F
REXBURG        SUNNY     88  38  17 S10       29.99F
$$

IDZ006-010-011-018-031-032-300200-
CENTRAL IDAHO MOUNTAINS


CITY           SKY/WX    TMP DP  RH WIND       PRES   REMARKS
MCCALL         FAIR      88  36  15 NW10G18   30.02F
HAILEY         SUNNY     90  36  14 W9        30.00F
STANLEY          N/A     85  26  11 W6        30.13F
SALMON         SUNNY     91  43  18 N5        29.85F
CHALLIS        SUNNY     93  27   9 SE5       29.95F
$$

IDZ002-004-006-007-026-300200-
NORTHERN IDAHO


CITY           SKY/WX    TMP DP  RH WIND       PRES   REMARKS
LEWISTON       SUNNY    101  38  11 NE3       29.77F HX  95
LOWELL           N/A     84  56  38 CALM      29.78F
COEUR D`ALENE  MOSUNNY   93  50  22 S6        29.81F HX  90
MULLAN PASS    MOSUNNY   77  45  32 CALM      30.14F
$$




USA.gov is the U.S. government's official web portal to all federal, state and local government web resources and services.